WRE Longue Distance Annecy Les Puisots 3/10/2010 - Kbis

Date : 03/10/2010

Place Nom Licence Catégorie Club Temps Points
1 HABERKORN Chloé 10396 D14 2105BF 0:28:50 3054
2 BORNARD Julie 9402 D14 7305AR 0:29:30 2985
3 PICAZO Marie 16555 D14 8405PZ 0:30:57 2845
4 ROULLEAUX Julie 11559 D14 9105IF 0:31:23 2806
5 BISSIERE Camille 19486 D14 4709NA 0:31:34 2789
6 BODY Mathilde 10184 D14 7305AR 0:34:20 2565
7 VALETTE Marion 10430 D14 6913AR 0:34:21 2563
8 DELENNE Camilla 13800 D14 1307PZ 0:35:33 2477
9 LUTHRINGER Coline 10091 D14 8809GE 0:36:37 2405
10 RIVOLLIER Isaline 22451 D14 4201AR 0:37:03 2377
11 DROIN Solène 17925 D14 4201AR 0:37:18 2361
12 LEBIHAN Barbara 11508 D14 6804GE 0:37:50 2327
13 BASSET Fiona 23384 D14 6911AR 0:40:14 2188
14 PRAT Charline 12609 D14 3408OC 0:42:54 2052
15 PIBAROT Apolline 13877 D14 8302PZ 0:43:25 2028
16 LELOUP Nathalie 10411 D14 6906AR 0:46:03 1912
17 CHAILLARD Dana 12045 D14 7305AR 0:48:17 1824
18 BONORA Marine 11542 D14 6906AR 0:48:54 1801
19 FALGA Beatrice 12403 D14 6911AR 0:50:14 1753
20 LAFARGE Emeline 17418 D14 7403AR 0:52:20 1682
21 LECOEUCHE Charlotte 22216 D14 5906HF 0:56:41 1553
22 GENNARO Leslie 20863 D14 3811AR 0:58:13 1512
23 LELOUP Gaelle 10412 D14 6906AR 0:59:01 1492
24 BULLIER Alisson 23427 D14 0207HF 1:00:57 1445
25 PORTE Louise 9143 D14 2105BF 1:07:56 1296
26 KESMEDJIAN Ninon 22673 D14 2607AR 1:08:15 1290
27 DASILVA Auriane 12758 D14 7707IF 1:18:58 1115
28 DODIER Lucile 10486 D14 7205PL 1:28:16 998